Home   Weather   Bizerte   Past weeks
Flag for Tunisia

Past Weather in Bizerte, Tunisia — Yesterday and Last 2 Weeks

Now
50 °F

Passing clouds.


Feels Like: 48 °F
Forecast: 59 / 52 °F
Wind: 6 mph from Southwest

Location: Bizerte Airport

Current Time: Mar 26, 2019 at 8:24:35 am

Latest Report: Mar 26, 2019 at 7:00 am


Visibility: 3 mi

Pressure: 29.95 "Hg

Humidity: 94%

Dew Point: 48 °F

Location of BizerteLocation

Past Weather in Bizerte — Graph

°F

Bizerte Temperature Yesterday

Maximum temperature yesterday: 70 °F (at 12:00 pm)
Minimum temperature yesterday: 41 °F (at 5:00 am)
Average temperature yesterday: 55 °F

High & Low Weather Summary for the Past Weeks

 TemperatureHumidityPressure
High72 °F (Mar 17, 2:00 pm)100% (Mar 22, 6:00 am)30.33 "Hg (Mar 22, 6:00 am)
Low37 °F (Mar 17, 7:00 am)34% (Mar 12, 1:00 pm)29.95 "Hg (Mar 17, 5:00 pm)
Average56 °F72%30.11 "Hg
* Reported Mar 11 7:00 am — Mar 26 7:00 am, Bizerte. Weather by CustomWeather, © 2019

Note: Actual official high and low records may vary slightly from our data, if they occured in-between our weather recording intervals... More about our weather records

Advertising

Bizerte Weather History for the Previous 24 Hours

Scroll right to see more
 ConditionsComfort  
Time TempWeatherWind HumidityBarometerVisibility
7:00 am
Tue, Mar 26
50 °FPassing clouds.6 mph94%29.95 "Hg3 mi
6:00 am50 °FPassing clouds.6 mph94%29.95 "Hg4 mi
5:00 am52 °FPassing clouds.7 mph94%29.95 "Hg5 mi
4:00 am54 °FClear.9 mph88%29.95 "Hg10 mi
3:00 am54 °FClear.8 mph88%29.95 "Hg10 mi
2:00 am55 °FClear.12 mph82%29.98 "Hg10 mi
1:00 am55 °FClear.12 mph88%29.98 "Hg10 mi
12:00 am54 °FClear.7 mph94%29.98 "Hg10 mi
11:00 pm
Mon, Mar 25
52 °FClear.6 mph82%29.98 "Hg10 mi
10:00 pm54 °FClear.7 mph82%29.98 "Hg10 mi
9:00 pm54 °FPassing clouds.2 mph72%29.98 "HgN/A
8:00 pm55 °FPassing clouds.5 mph67%29.98 "HgN/A
7:00 pm57 °FPassing clouds.6 mph67%29.98 "HgN/A
6:00 pm64 °FSunny.7 mph52%29.98 "Hg10 mi
5:00 pm66 °FSunny.9 mph49%29.98 "Hg10 mi
4:00 pm68 °FPassing clouds.14 mph46%30.01 "HgN/A
2:00 pm70 °FPassing clouds.13 mph40%30.04 "HgN/A
1:00 pm70 °FPassing clouds.10 mph38%30.07 "HgN/A
12:00 pm70 °FPassing clouds.9 mph40%30.09 "HgN/A
11:00 am66 °FPassing clouds.5 mph56%30.09 "HgN/A
10:00 am61 °FClear.2 mph72%30.09 "Hg5 mi
9:00 am55 °FClear.No wind82%30.12 "Hg4 mi
8:00 am48 °FClear.No wind100%30.12 "Hg4 mi
Weather by CustomWeather, © 2019

See weather overview